Le nostre stazioni meteo in Italia

Pubblicità
Il mio iltempo24.it
Termoli, Italia (16232): Temperatura & dewpoint: 24.03.2020 10:00:00 - 30.03.2020 10:00:00 (CEST)Termoli, Italia (16232): velocità del vento: 24.03.2020 10:00:00 - 30.03.2020 10:00:00 (CEST)Termoli, Italia (16232): direzione del vento: 24.03.2020 10:00:00 - 30.03.2020 10:00:00 (CEST)Termoli, Italia (16232): reduced air pressure: 24.03.2020 10:00:00 - 30.03.2020 10:00:00 (CEST)Termoli, Italia (16232): visibility: 24.03.2020 10:00:00 - 30.03.2020 10:00:00 (CEST)Termoli, Italia (16232): ore di luce: 24.03.2020 10:00:00 - 30.03.2020 10:00:00 (CEST)
Data & Tempo tt [°C] td [°C] ff [km/h] ff [kn] dd ppp [hPa] vv [km] sd [min]
30.03.2020 10:00:00 - - - - - - - -
30.03.2020 09:00:00 - - - - - - - -
30.03.2020 08:00:00 9,4 7,0 0 0 N 1011,8 10 0
30.03.2020 07:00:00 - - - - - - - -
30.03.2020 06:00:00 - - - - - - - -
30.03.2020 05:00:00 - - - - - - - -
30.03.2020 04:00:00 - - - - - - - -
30.03.2020 03:00:00 - - - - - - - -
30.03.2020 02:00:00 - - - - - - - -
30.03.2020 01:00:00 - - - - - - - -
30.03.2020 00:00:00 - - - - - - - -
29.03.2020 23:00:00 - - - - - - - -
29.03.2020 22:00:00 - - - - - - - -
29.03.2020 21:00:00 - - - - - - - -
29.03.2020 20:00:00 12,6 9,6 5 3 SSE 1011,7 10 0
29.03.2020 19:00:00 - - - - - - - -
29.03.2020 18:00:00 - - - - - - - -
29.03.2020 17:00:00 15,2 11,0 9 5 E 1011,5 4,0 60
29.03.2020 16:00:00 - - - - - - - -
29.03.2020 15:00:00 - - - - - - - -
29.03.2020 14:00:00 16,0 9,0 5 3 NE 1012,5 7 60
29.03.2020 13:00:00 - - - - - - - -
29.03.2020 12:00:00 - - - - - - - -
29.03.2020 11:00:00 12,2 8,5 5 3 NNO 1013,6 8 60
29.03.2020 10:00:00 - - - - - - - -
29.03.2020 09:00:00 - - - - - - - -
29.03.2020 08:00:00 10,8 7,1 15 8 SO 1013,3 10 0
29.03.2020 07:00:00 - - - - - - - -
29.03.2020 06:00:00 - - - - - - - -
29.03.2020 05:00:00 - - - - - - - -
29.03.2020 04:00:00 - - - - - - - -
29.03.2020 03:00:00 - - - - - - - -
29.03.2020 02:00:00 - - - - - - - -
29.03.2020 01:00:00 - - - - - - - -
29.03.2020 00:00:00 - - - - - - - -
28.03.2020 23:00:00 - - - - - - - -
28.03.2020 22:00:00 - - - - - - - -
28.03.2020 21:00:00 - - - - - - - -
28.03.2020 20:00:00 11,2 8,8 16 9 ONO 1013,3 10 -
28.03.2020 19:00:00 - - - - - - - -
28.03.2020 18:00:00 - - - - - - - -
28.03.2020 17:00:00 12,6 10,0 24 13 NO 1013,1 6 60
28.03.2020 16:00:00 - - - - - - - -
28.03.2020 15:00:00 - - - - - - - -
28.03.2020 14:00:00 12,0 9,5 31 17 ONO 1013,5 10 60
28.03.2020 13:00:00 - - - - - - - -
28.03.2020 12:00:00 - - - - - - - -
28.03.2020 11:00:00 11,0 8,7 18 10 NO 1013,5 12 0
28.03.2020 10:00:00 - - - - - - - -
28.03.2020 09:00:00 - - - - - - - -
28.03.2020 08:00:00 9,0 7,0 11 6 O 1013,5 20 0
28.03.2020 07:00:00 - - - - - - - -
28.03.2020 06:00:00 - - - - - - - -
28.03.2020 05:00:00 - - - - - - - -
28.03.2020 04:00:00 - - - - - - - -
28.03.2020 03:00:00 - - - - - - - -
28.03.2020 02:00:00 - - - - - - - -
28.03.2020 01:00:00 - - - - - - - -
28.03.2020 00:00:00 - - - - - - - -
27.03.2020 23:00:00 - - - - - - - -
27.03.2020 22:00:00 - - - - - - - -
27.03.2020 21:00:00 - - - - - - - -
27.03.2020 20:00:00 12,0 9,5 26 14 E 1012,4 15 -
27.03.2020 19:00:00 - - - - - - - -
27.03.2020 18:00:00 - - - - - - - -
27.03.2020 17:00:00 12,8 10,2 9 5 NNE 1011,3 20 0
27.03.2020 16:00:00 - - - - - - - -
27.03.2020 15:00:00 - - - - - - - -
27.03.2020 14:00:00 12,8 9,6 11 6 N 1011,1 20 0
27.03.2020 13:00:00 - - - - - - - -
27.03.2020 12:00:00 - - - - - - - -
27.03.2020 11:00:00 12,0 8,7 11 6 SE 1010,3 20 0
27.03.2020 10:00:00 - - - - - - - -
27.03.2020 09:00:00 - - - - - - - -
27.03.2020 08:00:00 11,0 7,5 21 11 SSE 1009,1 25 0
27.03.2020 07:00:00 - - - - - - - -
27.03.2020 06:00:00 - - - - - - - -
27.03.2020 05:00:00 - - - - - - - -
27.03.2020 04:00:00 - - - - - - - -
27.03.2020 03:00:00 - - - - - - - -
27.03.2020 02:00:00 - - - - - - - -
27.03.2020 01:00:00 - - - - - - - -
27.03.2020 00:00:00 - - - - - - - -
26.03.2020 23:00:00 - - - - - - - -
26.03.2020 22:00:00 - - - - - - - -
26.03.2020 21:00:00 - - - - - - - -
26.03.2020 20:00:00 11,4 9,1 41 22 E 1004,0 4,0 -
26.03.2020 19:00:00 - - - - - - - -
26.03.2020 18:00:00 - - - - - - - -
26.03.2020 17:00:00 10,6 8,5 34 18 E 1003,6 4,0 0
26.03.2020 16:00:00 - - - - - - - -
26.03.2020 15:00:00 - - - - - - - -
26.03.2020 14:00:00 10,2 8,1 22 12 E 1004,6 4,0 0
26.03.2020 13:00:00 - - - - - - - -
26.03.2020 12:00:00 - - - - - - - -
26.03.2020 11:00:00 7,2 5,2 24 13 ONO 1005,7 7 0
26.03.2020 10:00:00 - - - - - - - -
26.03.2020 09:00:00 - - - - - - - -
26.03.2020 08:00:00 5,6 3,6 21 11 ONO 1006,7 5 0
26.03.2020 07:00:00 - - - - - - - -
26.03.2020 06:00:00 - - - - - - - -
26.03.2020 05:00:00 - - - - - - - -
26.03.2020 04:00:00 - - - - - - - -
26.03.2020 03:00:00 - - - - - - - -
26.03.2020 02:00:00 - - - - - - - -
26.03.2020 01:00:00 - - - - - - - -
26.03.2020 00:00:00 - - - - - - - -
25.03.2020 23:00:00 - - - - - - - -
25.03.2020 22:00:00 - - - - - - - -
25.03.2020 21:00:00 - - - - - - - -
25.03.2020 20:00:00 4,8 2,8 16 9 ONO 1013,5 5 -
25.03.2020 19:00:00 - - - - - - - -
25.03.2020 18:00:00 - - - - - - - -
25.03.2020 17:00:00 5,4 2,7 4 2 N 1014,5 7 0
25.03.2020 16:00:00 - - - - - - - -
25.03.2020 15:00:00 - - - - - - - -
25.03.2020 14:00:00 6,0 3,0 18 10 N 1015,1 15 12
25.03.2020 13:00:00 - - - - - - - -
25.03.2020 12:00:00 - - - - - - - -
25.03.2020 11:00:00 4,8 2,5 15 8 ONO 1016,0 15 12
25.03.2020 10:00:00 - - - - - - - -
25.03.2020 09:00:00 - - - - - - - -
25.03.2020 08:00:00 1,8 -0,3 22 12 O 1016,6 7 0
25.03.2020 07:00:00 - - - - - - - -
25.03.2020 06:00:00 - - - - - - - -
25.03.2020 05:00:00 - - - - - - - -
25.03.2020 04:00:00 - - - - - - - -
25.03.2020 03:00:00 - - - - - - - -
25.03.2020 02:00:00 - - - - - - - -
25.03.2020 01:00:00 - - - - - - - -
25.03.2020 00:00:00 - - - - - - - -
24.03.2020 23:00:00 - - - - - - - -
24.03.2020 22:00:00 - - - - - - - -
24.03.2020 21:00:00 - - - - - - - -
24.03.2020 20:00:00 2,0 0,4 50 27 ONO 1017,8 6 0
24.03.2020 19:00:00 - - - - - - - -
24.03.2020 18:00:00 - - - - - - - -
24.03.2020 17:00:00 3,8 1,8 46 25 ONO 1017,5 10 0
24.03.2020 16:00:00 - - - - - - - -
24.03.2020 15:00:00 - - - - - - - -
24.03.2020 14:00:00 3,4 -0,1 41 22 ONO 1018,0 10 0
24.03.2020 13:00:00 - - - - - - - -
24.03.2020 12:00:00 - - - - - - - -
24.03.2020 11:00:00 4,8 -4,0 41 22 N 1018,6 10 0
24.03.2020 10:00:00 - - - - - - - -

tt = Temperatura
td = dewpoint
ff = velocità del vento
dd = direzione del vento
ppp = reduced air pressure
vv = visibility
sd = ore di luce

Stazioni seguenti

WeatherPro
AMSI
MeteoEarth